EW9528 Weather Reports


Display with metric or nautical units.
time (UTC)temp
F
wind
direction
speed
MPH
gust
MPH
rain 1hr
in
rain 24hr
in
rain mn
in
humidity
%
barometer
mb
20260503025014 63 358 4.0 6.0 0.00 0.00 0.00 24 1018.7
20260503024012 63 357 5.0 8.0 0.00 0.00 0.00 24 1018.6
20260503021912 65 10 4.0 7.0 0.00 0.00 0.00 22 1018.7
20260503020913 66 15 5.0 8.0 0.00 0.00 0.00 21 1018.8
20260503020814 66 15 4.0 5.0 0.00 0.00 0.00 21 1018.7
20260503014811 68 180 0.0 0.0 0.00 0.00 0.00 15 1018.7
20260503013812 69 180 0.0 0.0 0.00 0.00 0.00 15 1018.5
20260503012813 69 180 0.0 0.0 0.00 0.00 0.00 15 1018.5
20260503010813 70 180 1.0 2.0 0.00 0.00 0.00 14 1018.4
20260503005812 70 189 2.0 3.0 0.00 0.00 0.00 15 1018.6
20260503004828 71 172 3.0 4.0 0.00 0.00 0.00 14 1018.5
20260503003912 71 172 4.0 6.0 0.00 0.00 0.00 15 1018.6
20260503002828 71 166 4.0 6.0 0.00 0.00 0.00 14 1018.5
20260503001912 72 156 6.0 8.0 0.00 0.00 0.00 14 1018.7
20260502235912 72 157 4.0 5.0 0.00 0.00 0.00 13 1018.6
20260502235011 72 157 3.0 5.0 0.00 0.00 0.00 14 1018.7
20260502234015 72 176 5.0 8.0 0.00 0.00 0.00 13 1018.8
20260502233915 72 158 3.0 5.0 0.00 0.00 0.00 14 1018.8
20260502232913 72 167 5.0 7.0 0.00 0.00 0.00 13 1018.9
20260502232813 72 163 6.0 8.0 0.00 0.00 0.00 14 1018.9
20260502231812 72 146 4.0 7.0 0.00 0.00 0.00 15 1019.0
20260502230813 71 158 6.0 9.0 0.00 0.00 0.00 14 1019.2
20260502225833 72 150 3.0 5.0 0.00 0.00 0.00 14 1019.2
20260502224813 72 157 4.0 7.0 0.00 0.00 0.00 14 1019.4
20260502223912 72 160 5.0 8.0 0.00 0.00 0.00 14 1019.6
20260502222913 71 167 5.0 9.0 0.00 0.00 0.00 15 1019.8
20260502220929 71 158 4.0 7.0 0.00 0.00 0.00 14 1020.0
20260502215912 71 170 7.0 10.0 0.00 0.00 0.00 15 1020.4
20260502214812 71 142 5.0 8.0 0.00 0.00 0.00 14 1020.6
20260502213831 71 165 6.0 8.0 0.00 0.00 0.00 13 1020.8
20260502212912 71 148 3.0 6.0 0.00 0.00 0.00 14 1021.0
20260502211913 71 155 3.0 7.0 0.00 0.00 0.00 14 1021.2
20260502211811 71 161 3.0 4.0 0.00 0.00 0.00 14 1021.2
20260502210813 71 162 6.0 8.0 0.00 0.00 0.00 14 1021.3
20260502205828 70 152 3.0 6.0 0.00 0.00 0.00 14 1021.6
20260502204812 70 136 4.0 6.0 0.00 0.00 0.00 13 1021.6
20260502203911 70 174 3.0 5.0 0.00 0.00 0.00 13 1021.9
20260502202914 70 144 3.0 6.0 0.00 0.00 0.00 13 1021.9
20260502201930 69 171 3.0 6.0 0.00 0.00 0.00 13 1022.2
20260502201012 69 136 4.0 6.0 0.00 0.00 0.00 14 1022.3
20260502200111 69 147 5.0 6.0 0.00 0.00 0.00 15 1022.5
20260502194112 68 157 3.0 5.0 0.00 0.00 0.00 17 1022.7
20260502194013 68 164 4.0 6.0 0.00 0.00 0.00 17 1022.7
20260502193012 67 152 3.0 4.0 0.00 0.00 0.00 18 1022.8
20260502192111 67 157 3.0 5.0 0.00 0.00 0.00 19 1023.0
20260502191127 66 164 2.0 5.0 0.00 0.00 0.00 19 1023.0
20260502190111 66 122 5.0 7.0 0.00 0.00 0.00 20 1023.2
20260502185114 66 159 5.0 6.0 0.00 0.00 0.00 21 1023.5
20260502184113 65 148 4.0 6.0 0.00 0.00 0.00 23 1023.7
20260502183112 63 180 3.0 4.0 0.00 0.00 0.00 24 1023.9
20260502182130 63 163 2.0 5.0 0.00 0.00 0.00 25 1024.0
20260502180127 62 135 2.0 3.0 0.00 0.00 0.00 25 1024.2
20260502170411 61 157 4.0 5.0 0.00 0.00 0.00 31 1024.5
20260502170312 61 161 2.0 6.0 0.00 0.00 0.00 32 1024.5
20260502163512 57 136 1.0 3.0 0.00 0.00 0.00 37 1024.7
20260502162513 56 135 2.0 3.0 0.00 0.00 0.00 39 1024.8
20260502161513 55 201 0.0 1.0 0.00 0.00 0.00 40 1024.8
20260502160528 55 161 5.0 6.0 0.00 0.00 0.00 40 1024.8
20260502151629 53 155 2.0 5.0 0.00 0.00 0.00 45 1024.8
20260502150630 53 146 4.0 6.0 0.00 0.00 0.00 46 1024.9
20260502123813 39 315 0.0 0.0 0.00 0.00 0.00 64 1023.4
20260502121830 39 315 0.0 0.0 0.00 0.00 0.00 63 1023.4
20260502120913 39 315 0.0 0.0 0.00 0.00 0.00 63 1023.4
20260502115914 38 315 0.0 2.0 0.00 0.00 0.00 61 1023.3
20260502115011 39 315 0.0 0.0 0.00 0.00 0.00 59 1023.3
20260502113127 40 315 0.0 0.0 0.00 0.00 0.00 57 1023.2
20260502112113 41 315 0.0 0.0 0.00 0.00 0.00 55 1023.3
20260502111212 41 315 0.0 0.0 0.00 0.00 0.00 54 1023.5
20260502110311 41 315 0.0 2.0 0.00 0.00 0.00 54 1023.4
20260502104412 42 315 1.0 3.0 0.00 0.00 0.00 51 1023.4
20260502103412 42 315 0.0 0.0 0.00 0.00 0.00 52 1023.4
20260502102413 42 315 0.0 0.0 0.00 0.00 0.00 50 1023.3
20260502101414 43 315 0.0 0.0 0.00 0.00 0.00 49 1023.4
20260502100511 44 315 0.0 0.0 0.00 0.00 0.00 47 1023.5
20260502091512 45 337 0.0 1.0 0.00 0.00 0.00 48 1023.2
20260502070813 47 292 0.0 0.0 0.00 0.00 0.00 41 1023.4
20260502065813 48 292 0.0 0.0 0.00 0.00 0.00 40 1023.4
20260502064811 50 292 0.0 0.0 0.00 0.00 0.00 38 1023.4
20260502064731 50 292 0.0 0.0 0.00 0.00 0.00 38 1023.4
20260502063712 50 292 1.0 1.0 0.00 0.00 0.00 37 1023.2
20260502062714 51 360 0.0 0.0 0.00 0.00 0.00 35 1023.4
20260502061713 52 37 0.0 1.0 0.00 0.00 0.00 33 1023.3
20260502060713 53 45 2.0 2.0 0.00 0.00 0.00 31 1023.3
20260502060615 53 45 1.0 3.0 0.00 0.00 0.00 31 1023.3
20260502055621 55 45 3.0 5.0 0.00 0.00 0.00 30 1023.1
20260502054623 53 47 3.0 5.0 0.00 0.00 0.00 32 1023.0
20260502053622 54 45 2.0 4.0 0.00 0.00 0.00 32 1023.0
20260502051622 54 295 2.0 4.0 0.00 0.00 0.00 32 1022.8
20260502050623 54 337 0.0 0.0 0.00 0.00 0.00 32 1022.8
20260502045722 55 337 2.0 3.0 0.00 0.00 0.00 32 1022.8
20260502044722 55 356 1.0 3.0 0.00 0.00 0.00 32 1022.8
20260502042738 55 20 4.0 8.0 0.00 0.00 0.00 31 1022.5
20260502041723 56 15 2.0 4.0 0.00 0.00 0.00 30 1022.4
20260502040723 56 17 2.0 5.0 0.00 0.00 0.00 29 1022.4
20260502035739 56 357 3.0 6.0 0.00 0.00 0.00 30 1022.3
20260502034722 56 357 3.0 5.0 0.00 0.00 0.00 30 1022.1
20260502032823 57 332 2.0 5.0 0.00 0.00 0.00 29 1021.9
20260502031823 57 345 1.0 5.0 0.00 0.00 0.00 29 1021.8
20260502030823 57 356 2.0 6.0 0.00 0.00 0.00 29 1021.6